Location: Unspecified
(35.7250°N, 0.0000°E)
Time: 21:15:50
(UTC+00:00)

Vanguard 1 - Pass Details

Date: 28 June 2019
Orbit: 653 x 3830 km, 34.3° (Epoch: 22 July)

Event Time Altitude Azimuth Distance (km) Brightness Sun altitude
Rises 20:15:26 0° 180° (S) 7,274 14.1 -10.1°
Reaches altitude 10° 20:23:45 10° 161° (SSE) 6,684 13.8 -11.4°
Maximum altitude 20:35:01 16° 131° (SE) 6,396 13.5 -13.2°
Drops below altitude 10° 20:46:12 10° 101° (E) 6,768 13.8 -14.8°
Sets 20:54:23 0° 84° (E) 7,428 14.2 -16.0°
